Regional Weather Roundup
Issued by NWS Jackson, KY

Home | Current Version | Previous Version | Graphics & Text | Print | Product List | Glossary On
Versions: 1 2 3 4 5 6 7 8 9 10 11 12 13 14 15 16 17 18 19 20 21 22 23 24 25 26 27
000
ASUS43 KJKL 272010
RWRJKL

EAST KENTUCKY HOURLY WEATHER ROUNDUP
NATIONAL WEATHER SERVICE JACKSON KY
400 PM EDT TUE SEP 27 2016

NOTE: "FAIR" INDICATES FEW OR NO CLOUDS BELOW 12,000 FEET WITH
NO SIGNIFICANT WEATHER AND/OR OBSTRUCTIONS TO VISIBILITY.

* THESE REPORTS ARE NOT UNDER NWS QUALITY CONTROL AND MAY NOT
  REPORT WEATHER SUCH AS PRECIPITATION AND FOG.

KYZ079-080-083-085-087-088-110-112-115-119-120-272100
...EASTERN KENTUCKY...

CITY           SKY/WX    TMP DP  RH WIND       PRES   REMARKS
JACKSON        SUNNY     74  42  31 VRB3      29.95F
LONDON         SUNNY     74  34  23 NW6       29.95F
SOMERSET*      SUNNY     72  41  33 SW6       29.96F
MONTICELLO*    SUNNY     74  39  28 VRB5      29.97F
WILLIAMSBURG*  CLEAR     75  41  29 W6        29.95F
MIDDLESBORO*   SUNNY     78  42  28 N6        29.94F
HARLAN APT*    CLEAR     77  34  20 W3        29.95F
PIKE CO APT*     N/A     74  39  29 SW6       29.94F
BIG SANDY APT* CLEAR     75  40  28 CALM      29.94F
MOREHEAD APT*  CLEAR     73  37  27 SW9G17    29.94F
ASHLAND*       SUNNY     77  39  25 W7        29.89F
$$

KYZ035-036-041-042-044-050-067-078-099-272100
...CENTRAL KENTUCKY...

CITY           SKY/WX    TMP DP  RH WIND       PRES   REMARKS
MT STERLING*   SUNNY     73  41  31 W7        29.95F
FLEMING/MASON* SUNNY     75  36  24 W9G17     29.92F
DANVILLE*      SUNNY     73  41  31 W7        29.96S
LEXINGTON      SUNNY     75  34  22 W13       29.93F
FRANKFORT      SUNNY     75  40  28 W10       29.92F
LOUISVILLE     MOSUNNY   78  42  27 SW12G18   29.91F
LEBANON*         N/A     73  37  27 W8        29.95F
GLASGOW*       SUNNY     75  41  30 W6        29.96S
BOWLING GREEN  SUNNY     76  41  28 VRB5      29.95F
$$

KYZ091>093-OHZ055-061-077-WVZ005-015-034-035-042-272100
...SOUTHERN OHIO/WEST VIRGINIA...

CITY           SKY/WX    TMP DP  RH WIND       PRES   REMARKS
COVINGTON      MOSUNNY   74  45  35 SW9G20    29.88F
COLUMBUS       MOSUNNY   73  41  31 SW21G26   29.85F
DAYTON         MOSUNNY   74  43  32 SW24G35   29.84F
WILMINGTON     SUNNY     72  44  36 SW20      29.86F
HUNTINGTON     SUNNY     76  38  25 SW7       29.90F
CHARLESTON     SUNNY     76  37  24 VRB5      29.91F
PINEVILLE*     SUNNY     75  33  21 MISG      30.00F
BECKLEY        SUNNY     71  37  28 CALM      29.97F
BLUEFIELD      SUNNY     70  41  34 W9        29.98F
LOGAN CO APT*    N/A     70  41  35 CALM      29.93F
$$

VAZ002-007-008-TNZ017-027-036-066-071-272100
...SOUTHWEST VIRGINIA/EAST TENNESSEE...

CITY           SKY/WX    TMP DP  RH WIND       PRES   REMARKS
WISE*          SUNNY     72  36  26 CALM      29.99F
JONESVILLE*      N/A     81  46  30 NW7       29.95F
ABINGDON*      PTSUNNY   74  62  66 W9        29.95F
BRISTOL        PTSUNNY   75  64  68 W5        29.94F
MORRISTOWN*    PTCLDY    75  59  57 NW8G14    29.92F
SEVIERVILLE*   CLOUDY    79  63  57 NW6       29.91F
KNOXVILLE      MOSUNNY   78  62  57 W8        29.91F
OAK RIDGE      SUNNY     79  54  41 CALM      29.93F
CROSSVILLE     SUNNY     77  41  27 NE6       29.97F
NASHVILLE      SUNNY     78  37  22 NE3       29.96F
$$

...KEY TO REMARKS...
VSB - VISIBILITY IN MILES
WCI - WIND CHILL INDEX
HX  - HEAT INDEX

$$




USA.gov is the U.S. government's official web portal to all federal, state and local government web resources and services.